loading
|

THOR ABLESTAR DEB, 5265

Orbit data source: Space-Track

THOR ABLESTAR DEB, 5265 is space debris in LEO originally from a launch on Fri, 13 Aug 1965 UTC launched from the Air Force Western Test Range (AFWTR). Debris objects in space refer to the collection of defunct objects orbiting the Earth. Examples of debris include non-operational satellites, rocket bodies, and fragments generated from explosions, collisions, or faulty payload assembly.

Loading next visibility...
Loading greatness...
THOR ABLESTAR DEB details
Identifier
5265, 1965-065Q
Orbit
LEO
Last TLE update14 hours ago
Origin
Flag of USUSN NAVAIR (US)
ManufacturerUnknown
Mission statusUnknown
MissionUnknown
Bus & MotorUnknown
MassUnknown
Launch date (UTC)
1965-08-13 (59 years ago)
Launch vehicleUnknown
Launch site
Air Force Western Test Range (AFWTR)
Object type
Payload
Rocket body
Debris
Radar Cross Section0.07 m², Small (<0.1 m²)

Expand to show TLE details & history

TLE from 14 hours ago
0 THOR ABLESTAR DEB
1 05265U 65065Q   24261.38377870  .00000601  00000-0  10470-2 0  9999
2 05265  90.1521 296.7326 0042584  15.9768 358.2475 13.42160898887056
Epoch: 2024-09-17T09:12Z
Definitive object data (Epoch: 2024-09-17T09:12:38.479Z)
Latitude14.1785°
Longitude161.73482°
Altitude1,071.618 km
Speed7.333 km/s
True Right ascension19h 46m 46s
True Declination14° 06' 02"
Sunlit
Object was in daylight at TLE epoch
Predictive object data (real-time)
Latitude-63.08301°
Longitude162.07989°
Altitude1,118.313 km
Speed7.296 km/s
Apparent Right ascension01h 05m 30s
Apparent Declination-68° 34' 46"
Sunlit
Object is in daylight
Predictive observer data (real-time)
Local Sidereal Time15:57:37
Azimuth155.336° SSE
Elevation-53.332°
Doppler factor1
Orbital elements
Apogee1,130.139 km
Perigee1,066.464 km
Semi-major axis7,476.439 km
Eccentricity0.0042584
Inclination90.1521°
RAAN296.7326°
Arg. of periapsis15.9768°
True anomaly358.2325°
Mean anomaly358.2475°
Eccentric anomaly358.24001°
Mean motion3.35738 °/min
BSTAR0.001047
Period107.23 mins
No data available

THOR ABLESTAR DEB Visibility forecast

Observer location: 39.9160978°, -105.1181434

THOR ABLESTAR DEB is not visible in the next 10 days
Span
Click to sort rows by Start time (UTC) header in descending order
Start Az.
Max El. time (UTC)
Max El. Az.
Max El.
End time (UTC)
End Az.